Regional Weather Roundup
Issued by NWS

Home | Current Version | Previous Version | Graphics & Text | Print | Product List | Glossary On
Versions: 1 2 3 4 5 6 7 8 9 10 11 12 13 14 15 16 17 18 19 20 21 22 23 24 25 26 27 28 29 30 31 32 33 34 35 36 37 38 39 40 41 42 43 44 45 46 47 48 49 50
000
ASUS43 KIND 290409
RWRIN

WEATHER ROUNDUP FOR INDIANA
NATIONAL WEATHER SERVICE INDIANAPOLIS IN
1200 AM EDT SUN MAY 29 2016

NOTE: "FAIR" INDICATES FEW OR NO CLOUDS BELOW 12,000 FEET WITH NO
SIGNIFICANT WEATHER AND/OR OBSTRUCTIONS TO VISIBILITY.

* - STATION DOES NOT REPORT WEATHER SUCH AS PRECIPITATION OR FOG.

+ - STATION NOT QUALITY CONTROLLED BY THE NATIONAL WEATHER SERVICE.
    USE DATA WITH CAUTION...ESPECIALLY DEWPOINT AND RELATIVE
    HUMIDITY OBSERVATIONS.

INZ001>003-010>013-019-020-290500-
NORTHWEST INDIANA

CITY           SKY/WX    TMP DP  RH WIND       PRES   REMARKS
GARY /AIRPORT/ PTCLDY    77  71  82 S9G17     29.96S
KNOX *+        CLOUDY    72  55  56 S13       30.00R
LA PORTE +     PTCLDY    75  65  71 S10       30.00R
MICHIGAN CITY+ PTCLDY    73  63  68 S8        29.99R
MONTICELLO +   PTCLDY    73  63  72 S9        30.00S
RENSSELAER +   CLOUDY    72  64  78 S9        30.00R
VALPARAISO     MOCLDY    74  63  68 S10       29.99R

$$

LMZ046-743>745-290500-
SOUTHERN LAKE MICHIGAN

STATION/POSITION TIME  TEMP    WIND        PRES    WAVE
                       AIR SEA DIR/SP/G            HT
                 (UTC) (F)     (DEG/KT/KT) (MB)    (FT)
BURNS HARBOR     0300   76     180/ 11/ 18 1014.6R
MICHIGAN CITY    0300   76     160/ 17/ 19   N/A
5NW MICH CITY    0400   68 56  200/ 10/ 12   N/A     1

$$

INZ004-005-014>016-021>024-290500-
NORTH CENTRAL INDIANA

CITY           SKY/WX    TMP DP  RH WIND       PRES   REMARKS
GOSHEN         PTCLDY    72  62  71 S10       30.02R
LOGANSPORT +   PTCLDY    72  63  73 S9        30.03S
PERU/GRISSOM   MOCLDY    72  65  78 S12       30.02R
ROCHESTER +    PTCLDY    73  66  78 S7        30.02S
SOUTH BEND     PTCLDY    74  64  71 S10       30.00R
WARSAW +       MOCLDY    72  63  73 S3        30.03R

$$

INZ006>009-017-018-025>027-290500-
NORTHEAST INDIANA

CITY           SKY/WX    TMP DP  RH WIND       PRES   REMARKS
ANGOLA *+        N/A     72  64  78 S6        30.02F
AUBURN +       CLOUDY    72  63  73 SW5       30.04S
FORT WAYNE     MOCLDY    70  65  84 S8        30.04S
HUNTINGTON +   CLOUDY   N/A N/A N/A S7        30.03S

$$

INZ028-029-035-036-043>045-051>053-290500-
WEST CENTRAL INDIANA

CITY           SKY/WX    TMP DP  RH WIND       PRES   REMARKS
CRAWFORDSVL +  PTCLDY    68  66  92 S7        30.03S
GREENCASTLE +  PTCLDY    70  68  94 S6        30.04S
LAFAYETTE      PTCLDY    71  65  81 S6        30.01R
TERRE HAUTE    MOCLDY    72  65  78 S8        30.03S

$$

INZ030>032-037>040-046>048-054>057-064-065-290500-
CENTRAL INDIANA

CITY           SKY/WX    TMP DP  RH WIND       PRES   REMARKS
CP ATTERBURY + CLOUDY    70  64  83 S5        30.07S
FISHERS *+     CLOUDY    72  68  88 S7        30.05
FRANKFORT +      N/A     71  59  65 S5        30.05S
GREENWOOD *+   CLOUDY    72  66  83 S6        30.06S
INDIANAPOLIS   MOCLDY    72  65  78 S10       30.03S
-EAGLE CREEK   CLOUDY    73  65  75 S5        30.04S
KOKOMO *+      MOCLDY    72  61  68 S8        30.03S
MARION +       CLOUDY    71  66  84 S7        30.04S
SHELBYVILLE    CLOUDY    73  66  78 S9        30.06R
ZIONSVILLE +   CLOUDY    71  65  83 S9        30.05F

$$

INZ033-034-041-042-049-050-058-059-290500-
EAST CENTRAL INDIANA

CITY           SKY/WX    TMP DP  RH WIND       PRES   REMARKS
MUNCIE         CLOUDY    72  65  78 S8        30.06R

$$

INZ060-061-067>069-081>083-085>088-290500-
SOUTHWEST INDIANA

CITY           SKY/WX    TMP DP  RH WIND       PRES   REMARKS
EVANSVILLE     PTCLDY    73  67  81 SE5       30.06R
HUNTINGBURG *+ CLOUDY    72  64  78 S7        30.07R
WASHINGTON +   PTCLDY    70  70 100 S6        30.04S

$$

INZ062-063-066-070>080-084-089>092-290500-
SOUTH CENTRAL AND SOUTHEAST INDIANA

CITY           SKY/WX    TMP DP  RH WIND       PRES   REMARKS
BEDFORD +      CLOUDY    72  70  94 S5        30.06S
BLOOMINGTON    PTCLDY    71  65  81 S7        30.06R
MADISON *+     PTCLDY    70  61  73 CALM      30.11R
NORTH VERNON + CLOUDY    70  70 100 CALM      30.09R
SEYMOUR +      CLOUDY    72  66  83 S8        30.06S

$$





USA.gov is the U.S. government's official web portal to all federal, state and local government web resources and services.